Weather in Rawala Kot

Pakistan     33°52′00″N   73°46′00″E
temp.,
°C
wind,
m/s
gust,
m/s
humid.,
%
clouds,
%
prec.,
mm/h
press.,
hPa
HPBL,
m
15 april, thu
thu1523:00+16ne4451100 0.1 101457
02:00+15nne4456100 0.9 101452
05:00+13ne5573100 1.8 1015118
08:00+16ne3460100 0.3 1016237
11:00+19ne4451100 0.4 1016449
14:00+21n2242100 0.0 1013830
17:00+19nne455035 0.3 1011293
20:00+13ne5558100 0.0 101367
16 april, fri
fri1623:00+13n5562100 0.4 101384
02:00+14n6762100 0.3 1012118
05:00+13ne5674100 1.1 1013117
08:00+15nne5666100 0.1 1013170
11:00+20nne4543100 0.1 1012556
14:00+20nne5645100 0.0 1011757
17:00+17nne5758100 0.1 1010443
20:00+14nne5661100 0.0 1011125
17 april, sat
sat1723:00+14nne3357100 0.0 101167
02:00+13nne337399 1.0 101162
05:00+12nne3383100 3.3 1012102
08:00+12nne3483100 1.3 1014122
11:00+17sse1261100 2.9 1014794
14:00+17sse1264100 2.9 1013900
17:00+17ene2262100 5.6 1013389
20:00+13ne3372100 0.0 101432
18 april, sun
sun1823:00+11nne4374100 0.1 101644
02:00+12ne3367100 0.4 101430
05:00+11ne3363100 0.6 101427
08:00+16ne22524 0.5 1015231
11:00+20s434313 0.8 10141369
14:00+21ssw454349 0.5 10111958
17:00+11w51295100 15.6 1015923
20:00+10ene44815 10.3 101582
19 april, mon
mon1923:00+12ne43623 10.4 101335
02:00+11nne44630 0.0 101239
05:00+11nne43580 0.0 101232
08:00+17nne33470 0.0 1012145
11:00+22nne12282 0.0 10112276
14:00+23wsw212716 0.0 10092966
17:00+22w113112 0.0 10082134
20:00+16nne33490 0.0 101027